Flag for Poland Weather past 2 weeks in Białystok, Poland

Now
50 °F

Passing clouds.


Feels Like: 49 °F
Forecast: 49 / 70 °F
Wind: 3 mph from Northeast

Location: Bialystok

Current Time: Sep 3, 2014 at 2:49:02 AM

Latest Report: Sep 3, 2014 at 2:00 AM


Visibility: 11 mi

Pressure: 30.28 "Hg

Humidity: 95%

Dew point: 49 °F

Location of BiałystokLocation

Historic Weather in Białystok — Graph

°F

Białystok temperature yesterday

Maximum temperature yesterday: 61 °F (at 4:00 PM)
Minimum temperature yesterday: 47 °F (at 6:00 AM)
Average temperature yesterday: 54 °F

Past Weeks' High & Low Weather Summary

 TemperatureHumidityPressure
High71 °F (Aug 23, 1:00 PM)99% (Aug 22, 7:00 AM)30.27 "Hg (Aug 22, 7:00 AM)
Low41 °F (Aug 22, 5:00 AM)38% (Aug 20, 6:00 PM)29.71 "Hg (Aug 26, 7:00 PM)
Average56 °F82%29.94 "Hg
* Reported Aug 19 1:00 AM — Sep 3 1:00 AM, Białystok, Weather by CustomWeather, © 2014

Note: Actual official high and low records may vary slightly from our data, if they occured in-between our weather recording intervals... More about our weather records

Advertising

Białystok weather history for previous 24 hours

 ConditionsComfort  
Time TempWeatherWind HumidityBarometerVisibility
1:00 AM
Sep 3
50 °FClear.3 mph94%30.27 "Hg11 mi
12:00 AM50 °FClear.2 mph94%30.27 "Hg9 mi
11:00 PM
Sep 2
50 °FClear.1 mph94%30.27 "Hg7 mi
10:00 PM52 °FPassing clouds.1 mph90%30.25 "Hg12 mi
9:00 PM53 °FPassing clouds.2 mph85%30.24 "Hg11 mi
8:00 PM54 °FPassing clouds.1 mph80%30.22 "Hg11 mi
7:00 PM58 °FPassing clouds.3 mph72%30.19 "Hg22 mi
6:00 PM61 °FPartly sunny.3 mph67%30.18 "Hg22 mi
5:00 PM61 °FPartly sunny.5 mph66%30.18 "Hg22 mi
4:00 PM61 °FPartly sunny.5 mph64%30.16 "Hg25 mi
3:00 PM59 °FPartly sunny.6 mph65%30.17 "Hg22 mi
2:00 PM59 °FOvercast.6 mph68%30.17 "Hg28 mi
1:00 PM58 °FOvercast.5 mph70%30.17 "Hg28 mi
12:00 PM57 °FOvercast.6 mph72%30.17 "Hg28 mi
11:00 AM57 °FOvercast.3 mph72%30.16 "Hg28 mi
10:00 AM56 °FOvercast.5 mph74%30.15 "Hg31 mi
9:00 AM53 °FPartly sunny.3 mph89%30.15 "Hg22 mi
8:00 AM51 °FLow clouds.5 mph91%30.14 "Hg17 mi
7:00 AM49 °FScattered clouds.2 mph94%30.13 "Hg14 mi
6:00 AM47 °FPartly sunny.2 mph96%30.13 "Hg10 mi
5:00 AM47 °FFog.2 mph96%30.11 "Hg6 mi
4:00 AM48 °FFog.2 mph96%30.12 "Hg6 mi
3:00 AM49 °FFog.2 mph95%30.11 "Hg6 mi
2:00 AM47 °FFog.2 mph97%30.11 "Hg5 mi
Weather by CustomWeather, © 2014

See weather overviewHow to use our weather pages